This is the latest recevied weather packets stored in our database for station/object KB1JL-13. If no packets are shown the sender has not sent any weather packets the latest 10 day(s).
| Time | Temp. | Humidity | Pressure | Rain* | Wind** | Luminosity | Snow |
|---|---|---|---|---|---|---|---|
| 1777656850 | 16.67° C | 43% | 1022.2 hPa | 0 mm | - | 665 W/m² | - |
| 1777655936 | 16.11° C | 42% | 1022.6 hPa | 0 mm | - | 651 W/m² | - |
| 1777655330 | 15.56° C | 43% | 1022.6 hPa | 0 mm | - | 702 W/m² | - |
| 1777654120 | 15° C | 44% | 1022.6 hPa | 0 mm | - | 661 W/m² | - |
| 1777653513 | 15° C | 47% | 1023 hPa | 0 mm | - | 683 W/m² | - |
| 1777653210 | 15° C | 46% | 1022.6 hPa | 0 mm | - | 213 W/m² | - |
| 1777652907 | 15° C | 47% | 1023 hPa | 0 mm | - | 723 W/m² | - |
| 1777652603 | 14.44° C | 46% | 1023 hPa | 0 mm | - | 703 W/m² | - |
| 1777652300 | 15° C | 48% | 1023 hPa | 0 mm | - | 699 W/m² | - |
| 1777651997 | 14.44° C | 46% | 1023 hPa | 0 mm | - | 684 W/m² | - |
| 1777651694 | 15° C | 50% | 1023.4 hPa | 0 mm | - | 704 W/m² | - |
| 1777651390 | 13.89° C | 48% | 1023 hPa | 0 mm | - | 707 W/m² | - |
| 1777651088 | 14.44° C | 53% | 1023.4 hPa | 0 mm | - | 734 W/m² | - |
| 1777649876 | 13.89° C | 54% | 1023.7 hPa | 0 mm | - | 764 W/m² | - |
| 1777649573 | 13.33° C | 52% | 1023.4 hPa | 0 mm | - | 792 W/m² | - |
| 1777649269 | 13.33° C | 58% | 1023.7 hPa | 0 mm | - | 806 W/m² | - |
| 1777648966 | 14.44° C | 51% | 1023.4 hPa | 0 mm | - | 868 W/m² | - |
| 1777648664 | 13.89° C | 53% | 1023.4 hPa | 0 mm | - | 820 W/m² | - |
| 1777648359 | 13.33° C | 54% | 1023.4 hPa | 0 mm | - | 785 W/m² | - |
| 1777648056 | 13.89° C | 57% | 1023.7 hPa | 0 mm | - | 721 W/m² | - |
| 1777647752 | 13.33° C | 54% | 1023.7 hPa | 0 mm | - | 764 W/m² | - |
| 1777647449 | 12.22° C | 55% | 1023.7 hPa | 0 mm | - | 798 W/m² | - |
| 1777647146 | 13.33° C | 54% | 1023.7 hPa | 0 mm | - | 184 W/m² | - |
| 1777646842 | 13.89° C | 53% | 1023.4 hPa | 0 mm | - | 334 W/m² | - |
| 1777646235 | 12.78° C | 54% | 1023.4 hPa | 0 mm | - | 702 W/m² | - |
* Rain latest hour (hover to see other rain measurements)
** Current wind speed in m/s (hover to see current wind gust speed)